Grand Prairie, TX

7:32 AM CDT on October 24, 2017 (GMT -0500)
Grand Prairie Municipal

Weather History for KGPM - March, 2013

Change the Weather History Date:

Saturday, March 9, 2013

  Actual Average (KRBD) Record (KRBD)
Temperature  
Mean Temperature 64 °F -  
Max Temperature 68 °F 61 °F 81 °F (2009)
Min Temperature 59 °F 43 °F 30 °F (1998)
Degree Days  
Heating Degree Days 2    
Growing Degree Days 14 (Base 50)    
Moisture  
Dew Point 57 °F    
Average Humidity 84    
Maximum Humidity 94    
Minimum Humidity 77    
Precipitation  
Precipitation 1.37 in - - ()
Sea Level Pressure  
Sea Level Pressure 29.86 in    
Wind  
Wind Speed 11 mph (South)    
Max Wind Speed 16 mph    
Max Gust Speed 32 mph    
Visibility 8 miles    
Events      
Averages and records for this station are not official NWS values.
T = Trace of Precipitation, MM = Missing Value Source: NWS Daily Summary

Daily Weather History Graph

Daily Weather History Graph

Search for Another Location

Airport or City:

Trip Planner

Search our weather history database for the weather conditions in past years. The results will help you decide how hot, cold, wet, or windy it might be!

Date:

Astronomy

Mar. 09, 2013 Rise Set
Actual Time 6:45 AM CST 6:31 PM CST
Civil Twilight 6:21 AM CST 6:56 PM CST
Nautical Twilight 5:52 AM CST 7:25 PM CST
Astronomical Twilight 5:24 AM CST 7:53 PM CST
Moon 5:04 AM CST (3/9) 4:39 PM CST (3/9)
Length of Visible Light 12h 35m
Length of Day
11h 46m
Waning Crescent, 5% of the Moon is Illuminated
Mar 9
Waning Crescent
Mar 11
New
Mar 19
First Quarter
Mar 27
Full
Apr 2
Last Quarter

Hourly Weather History & Observations

Time (CST) Temp. Dew Point Humidity Pressure Visibility Wind Dir Wind Speed Gust Speed Precip Events Conditions
12:15 AM 60.8 °F 53.6 °F 77% 30.01 in 10.0 mi SSE 13.8 mph 19.6 mph N/A   Mostly Cloudy
12:35 AM 60.8 °F 53.6 °F 77% 30.00 in 10.0 mi SSE 13.8 mph 20.7 mph N/A   Mostly Cloudy
12:55 AM 60.8 °F 53.6 °F 77% 29.99 in 10.0 mi SSE 10.4 mph 19.6 mph N/A   Mostly Cloudy
1:15 AM 59.0 °F 53.6 °F 82% 29.99 in 10.0 mi SSE 12.7 mph 19.6 mph N/A   Scattered Clouds
1:35 AM 59.0 °F 53.6 °F 82% 29.99 in 10.0 mi SSE 12.7 mph 23.0 mph N/A   Clear
1:55 AM 59.0 °F 53.6 °F 82% 29.98 in 10.0 mi SSE 10.4 mph 21.9 mph N/A   Scattered Clouds
2:15 AM 59.0 °F 53.6 °F 82% 29.97 in 10.0 mi SSE 11.5 mph 17.3 mph N/A   Mostly Cloudy
2:35 AM 59.0 °F 53.6 °F 82% 29.96 in 10.0 mi South 11.5 mph 19.6 mph N/A   Mostly Cloudy
2:55 AM 60.8 °F 53.6 °F 77% 29.95 in 10.0 mi SSE 13.8 mph 20.7 mph N/A   Mostly Cloudy
3:15 AM 60.8 °F 53.6 °F 77% 29.94 in 10.0 mi SSE 10.4 mph 20.7 mph N/A   Overcast
3:35 AM 59.0 °F 53.6 °F 82% 29.93 in 10.0 mi SSE 11.5 mph 17.3 mph N/A   Overcast
3:55 AM 60.8 °F 55.4 °F 82% 29.93 in 10.0 mi SSE 13.8 mph - N/A   Overcast
4:15 AM 60.8 °F 53.6 °F 77% 29.92 in 10.0 mi SSE 9.2 mph 16.1 mph N/A   Overcast
4:35 AM 60.8 °F 55.4 °F 82% 29.92 in 10.0 mi SSE 11.5 mph 18.4 mph N/A   Overcast
4:55 AM 60.8 °F 55.4 °F 82% 29.91 in 7.0 mi South 13.8 mph 19.6 mph N/A   Overcast
5:15 AM 60.8 °F 55.4 °F 82% 29.91 in 10.0 mi SSE 12.7 mph 18.4 mph N/A   Overcast
5:35 AM 60.8 °F 55.4 °F 82% 29.91 in 10.0 mi SSE 12.7 mph 20.7 mph N/A   Overcast
5:55 AM 60.8 °F 55.4 °F 82% 29.91 in 10.0 mi SSE 12.7 mph 19.6 mph N/A   Overcast
7:50 AM 62.6 °F 57.2 °F 82% 29.89 in 7.0 mi SSE 13.8 mph 24.2 mph N/A   Overcast
8:50 AM 62.6 °F 57.2 °F 82% 29.88 in 7.0 mi SSE 16.1 mph 24.2 mph N/A   Overcast
9:50 AM 64.4 °F 59.0 °F 83% 29.87 in 10.0 mi SSE 13.8 mph 24.2 mph N/A   Overcast
10:50 AM 64.4 °F 59.0 °F 83% 29.87 in 10.0 mi SSE 13.8 mph 24.2 mph N/A   Overcast
1:50 PM 66.2 °F 62.6 °F 88% 29.80 in 10.0 mi SSE 11.5 mph 27.6 mph N/A   Overcast
2:59 PM 66.2 °F 64.4 °F 94% 29.75 in 5.0 mi SSE 11.5 mph 27.6 mph N/A   Overcast
3:59 PM 66.2 °F 64.4 °F 94% 29.74 in 4.0 mi South 11.5 mph 23.0 mph N/A   Overcast
8:15 PM 68.0 °F 60.8 °F 78% 29.73 in 10.0 mi South 8.1 mph - N/A   Scattered Clouds
8:35 PM 68.0 °F 60.8 °F 78% 29.74 in 10.0 mi South 5.8 mph - N/A   Scattered Clouds
8:55 PM 66.2 °F 60.8 °F 83% 29.73 in 4.0 mi SSE 11.5 mph - 0.03 in   Mostly Cloudy
9:15 PM 66.2 °F 60.8 °F 83% 29.76 in 5.0 mi WSW 10.4 mph - 0.03 in   Mostly Cloudy
9:35 PM 60.8 °F 57.2 °F 88% 29.74 in 0.5 mi SSW 5.8 mph 32.2 mph 0.55 in   Overcast
9:55 PM 62.6 °F 59.0 °F 88% 29.73 in 10.0 mi South 3.5 mph - 0.55 in   Scattered Clouds
10:15 PM 62.6 °F 59.0 °F 88% 29.74 in 7.0 mi Calm Calm - 0.01 in   Mostly Cloudy
10:35 PM 60.8 °F 59.0 °F 94% 29.73 in 1.8 mi West 4.6 mph - 0.09 in   Overcast
10:55 PM 60.8 °F 59.0 °F 94% 29.73 in 0.2 mi South 3.5 mph - 0.41 in   Overcast
11:15 PM 60.8 °F 59.0 °F 94% 29.72 in 0.8 mi SSW 3.5 mph - 0.20 in   Overcast
11:35 PM 60.8 °F 59.0 °F 94% 29.76 in 1.8 mi WSW 10.4 mph - 0.33 in   Overcast
11:55 PM 60.8 °F 59.0 °F 94% 29.77 in 4.0 mi SW 10.4 mph - 0.38 in   Overcast